Location: Fours
(44.3167°N, 6.7000°E)
Time: 09:48:41
(UTC+00:00)

SL-16 R/B - Pass Details

Date: 30 November 2020
Orbit: 841 x 849 km, 71.0° (Epoch: 26 January)

Event Time Altitude Azimuth Distance (km) Brightness Sun altitude
Rises 17:03:34 0° 212° (SSW) 3,384 6.2 -11.9°
Reaches altitude 10° 17:06:01 10° 215° (SW) 2,452 5.5 -12.3°
Maximum altitude 17:11:37 67° 298° (WNW) 912 2.5 -13.2°
Drops below altitude 10° 17:17:15 10° 21° (NNE) 2,467 4.3 -14.2°
Enters shadow 17:18:16 - 22° (NNE) 2,852 4.6 -14.4°
